RH
74 64 60 56 43 25 19 20 20 19 20 18 17 16 15 12 11 13 17 17 18 8 12 9 10 18 19 22 36 35 51 47 34 40 33 24 18 19 20 22 26 25 23 22 32
88 70 57 46 37 26 22 24 27 26 25 24 23 20 16 14 12 15 18 19 13 10 22 23 21 28 26 28 26 31 42 38 33 34 31 23 18 19 23 27 28 26 24 24 29
69 67 59 55 42 31 28 31 30 31 31 28 24 21 18 17 18 13 16 17 11 10 23 27 27 29 29 31 29 38 35 28 29 24 24 23 20 19 26 36 25 22 21 26 28
52 51 48 43 39 35 32 32 31 31 27 22 20 18 17 18 16 17 13 7 10 11 21 30 29 30 32 32 27 31 30 30 26 23 22 23 19 18 22 17 17 18 20 21 28
39 39 39 38 37 37 33 32 30 24 21 21 19 17 15 19 17 16 14 7 10 13 22 28 28 28 30 31 27 29 24 26 24 23 20 21 20 21 19 16 16 18 23 22 24
33 33 33 33 34 33 31 31 28 22 20 20 20 17 19 26 15 16 14 7 10 16 27 27 28 28 26 23 27 22 24 23 24 24 22 22 24 22 18 16 18 20 25 24 23
29 28 27 27 27 28 27 27 26 22 19 19 19 17 16 12 14 12 9 8 11 18 27 28 29 29 24 21 18 22 24 26 29 27 25 22 28 34 19 18 18 20 23 25 25
23 22 21 20 20 20 22 22 21 19 17 17 18 20 14 15 17 16 12 10 13 13 24 30 30 29 27 22 20 23 24 31 26 29 23 22 30 27 19 21 22 21 22 24 24
20 18 17 16 15 14 14 15 16 18 18 17 17 24 21 18 18 15 13 11 19 22 25 28 28 27 25 29 32 30 32 35 31 29 27 28 31 23 17 24 27 24 23 25 25
16 16 16 15 14 13 11 10 10 11 13 13 16 21 17 15 16 14 10 16 21 24 26 28 27 39 41 37 35 32 35 32 30 21 34 34 33 26 24 36 30 28 27 28 28
17 16 14 14 13 12 19 32 34 35 34 14 19 12 17 17 15 15 15 17 23 27 35 29 37 44 40 37 25 23 30 27 25 23 35 38 32 27 24 35 41 38 33 30 29
22 21 16 14 14 13 26 29 29 28 32 21 21 24 22 25 17 16 16 16 25 36 34 38 49 30 31 36 36 35 32 34 30 26 33 33 33 30 26 37 29 31 35 30 25
34 25 23 17 19 17 17 25 28 31 34 22 23 25 21 20 24 17 14 21 29 35 40 47 33 32 34 33 38 37 37 33 28 25 30 31 32 35 31 29 27 25 21 25 23
55 43 23 21 27 21 31 30 27 32 45 29 27 24 23 21 20 19 18 15 26 33 39 43 30 31 36 38 36 34 33 33 32 33 40 31 32 23 28 30 33 28 25 23 25
46 58 43 22 20 30 31 30 27 38 28 25 22 22 22 20 20 24 19 19 28 29 33 36 31 34 43 31 32 38 28 37 38 40 34 36 38 24 27 27 24 21 19 16 14
7 36 56 37 28 36 40 28 34 37 31 26 21 22 22 22 21 26 21 20 26 30 34 29 22 27 32 26 31 26 28 34 51 48 50 33 38 25 18 22 20 18 15 12 10
3 6 36 55 42 29 28 30 40 41 26 28 31 26 24 24 25 28 29 31 29 33 35 30 30 30 22 29 28 29 36 53 52 63 44 33 39 23 18 20 21 18 13 9 9
3 5 29 50 53 28 28 34 36 32 39 40 42 40 27 24 25 29 36 40 34 33 43 41 36 28 25 26 32 39 33 42 54 50 30 42 46 23 22 18 15 14 12 11 12
6 24 58 54 42 26 31 48 41 49 44 47 43 43 36 35 41 39 37 40 36 36 38 41 42 28 26 24 27 30 46 29 36 29 43 28 33 25 28 28 24 21 15 14 12
42 43 55 56 50 42 45 51 46 42 48 44 54 49 55 50 52 50 42 37 69 68 66 50 54 32 29 25 26 30 31 42 53 51 50 36 36 31 23 19 18 22 20 14 12
45 53 56 58 54 48 63 58 50 45 28 47 49 56 56 64 61 60 51 56 75 77 69 78 71 61 43 43 43 38 44 42 42 49 45 45 35 23 21 18 18 19 15 13 11
32 60 37 26 53 73 72 61 43 42 24 28 37 58 63 52 66 69 66 55 54 65 86 76 90 88 70 47 40 38 38 51 57 59 58 41 37 18 19 21 20 20 16 13 12
25 34 31 42 70 80 52 39 39 33 30 39 41 47 44 56 53 66 52 44 42 43 61 76 87 94 64 58 72 88 67 65 82 92 96 80 54 32 45 51 46 34 20 15 13
24 36 21 32 48 57 64 48 47 30 38 44 40 46 54 51 44 56 52 46 45 46 43 53 84 88 91 77 69 71 60 58 73 96 83 85 79 54 48 52 56 54 43 23 16
27 80 73 65 63 72 66 54 50 48 49 49 47 59 64 71 62 59 56 55 54 52 59 70 78 64 58 53 54 56 67 67 70 75 91 58 43 38 38 55 69 70 66 64 50
50 60 55 66 71 70 72 48 53 62 66 65 59 67 69 77 71 82 68 70 69 56 62 69 79 66 73 58 56 62 52 52 65 54 51 57 78 59 55 74 76 78 77 70 58
72 62 60 68 75 74 72 64 67 66 57 62 67 77 78 68 63 66 65 63 62 70 68 67 74 80 86 62 62 74 55 48 46 42 44 66 65 82 86 78 74 76 76 65 68
Wind_Speed
2 3 4 5 5 6 9 10 10 9 9 8 7 5 5 6 8 8 7 5 4 3 4 4 6 6 4 2 2 2 4 3 5 6 6 8 6 7 9 11 15 14 8 6 26
6 7 7 7 7 9 9 9 8 7 7 6 5 4 4 5 8 10 5 6 5 5 5 5 7 6 2 1 2 3 3 9 6 5 5 9 10 13 8 12 11 15 15 11 29
11 11 10 9 9 9 9 8 8 7 6 5 3 2 3 4 5 5 8 6 6 7 7 5 5 4 0 1 3 3 5 4 4 5 9 9 7 11 8 5 17 28 26 22 33
11 11 10 9 8 8 8 8 8 6 5 3 1 2 4 5 4 3 4 6 6 7 6 6 4 3 1 3 4 2 7 5 3 5 4 6 8 7 19 20 13 26 26 30 36
10 10 9 8 6 6 6 6 6 4 3 1 1 3 3 5 7 4 3 3 6 7 7 6 4 3 3 4 2 3 4 6 9 8 7 6 12 12 19 29 22 15 27 32 36
9 8 7 6 4 4 4 4 4 4 3 2 3 4 4 5 3 5 5 5 7 8 9 7 3 2 4 5 4 3 10 8 9 10 8 6 8 9 16 26 25 21 30 34 37
7 6 5 4 2 2 2 3 4 5 4 3 5 7 8 12 4 3 4 4 7 7 9 7 6 4 3 5 6 3 3 4 7 6 5 8 9 12 34 18 27 27 32 37 41
5 4 3 3 1 0 2 4 6 6 6 6 6 9 7 5 9 10 6 5 5 9 9 5 4 6 5 7 4 0 2 2 4 8 7 9 14 8 30 30 29 31 35 40 41
3 3 3 2 1 1 2 4 5 7 8 8 8 7 7 5 9 7 10 5 4 5 6 6 4 4 3 4 5 4 4 7 8 15 4 8 9 9 13 31 32 35 38 42 43
4 4 3 3 2 2 2 3 4 6 8 10 13 7 5 2 4 5 6 6 3 3 3 4 3 0 2 3 8 7 6 5 6 3 4 5 15 13 9 21 35 38 39 43 46
5 4 3 3 3 3 2 1 2 3 9 8 2 3 2 1 2 3 4 7 5 2 3 1 2 11 14 11 3 4 4 6 5 6 8 10 18 22 22 19 26 32 39 44 48
4 3 2 2 2 1 2 2 3 4 8 11 17 23 17 3 4 6 7 7 5 5 2 3 8 9 3 6 6 5 6 9 8 8 8 10 20 18 14 13 32 35 37 47 49
4 3 1 0 2 2 2 3 4 6 3 6 4 5 5 15 6 6 11 6 5 5 7 7 8 3 6 7 6 12 14 8 13 7 5 4 20 9 11 25 30 38 48 44 51
4 4 2 0 2 1 2 5 4 5 4 4 1 1 3 6 4 6 16 9 3 6 5 6 15 16 6 6 12 15 8 13 12 3 9 4 15 7 6 14 13 30 37 46 50
7 5 4 1 1 1 2 5 5 3 4 0 1 2 5 5 4 1 9 13 6 4 5 9 4 5 7 15 6 7 7 9 7 6 2 5 4 2 3 7 11 14 38 45 47
8 6 3 2 1 0 4 4 2 5 4 2 2 3 2 3 3 2 2 11 3 4 5 14 11 5 8 4 9 3 3 2 3 4 7 10 8 28 11 13 11 16 32 40 40
9 5 3 2 0 4 6 3 5 3 5 4 5 4 1 3 3 3 3 3 4 3 5 5 6 6 17 13 3 4 5 4 4 2 15 9 9 22 4 6 9 15 32 36 36
4 1 2 2 2 3 3 4 1 3 5 4 6 4 4 3 3 3 1 3 6 4 3 6 12 7 3 13 11 11 13 9 6 7 15 5 10 13 10 15 21 30 39 43 44
8 10 9 7 4 2 2 4 1 4 6 8 8 4 3 2 6 8 2 4 4 3 4 6 7 7 3 5 7 5 7 15 11 21 5 12 16 13 11 9 12 22 32 37 40
12 14 12 6 6 5 4 1 3 5 6 3 2 4 4 7 7 9 2 3 6 8 10 6 16 7 6 3 3 6 4 3 2 9 21 14 6 12 6 7 11 11 21 36 34
5 5 8 5 4 5 3 1 3 11 15 6 3 5 2 4 3 3 6 4 9 10 8 5 5 11 5 3 13 10 6 4 4 7 17 19 14 7 14 16 17 12 26 31 33
5 4 8 5 5 4 3 5 7 8 11 5 3 2 2 5 4 5 7 2 12 12 6 6 7 17 24 20 16 16 9 3 4 15 6 14 24 3 4 8 8 15 33 39 40
5 3 10 5 4 3 6 5 3 5 4 5 4 6 6 3 5 4 6 14 16 12 4 3 2 9 17 7 7 6 11 15 15 7 14 14 15 12 21 27 36 33 39 35 36
4 3 7 11 9 5 3 4 5 6 1 5 4 4 5 1 4 6 11 7 21 19 23 19 6 13 16 19 15 25 26 22 14 8 14 16 22 32 30 24 21 38 45 45 45
7 4 4 4 6 4 2 2 3 4 6 7 5 4 3 4 10 8 14 16 10 24 9 4 14 14 20 23 23 26 26 21 24 20 15 27 25 26 22 18 12 25 35 45 45
5 5 4 5 6 4 2 2 2 0 2 4 5 6 7 6 11 20 10 9 8 11 10 4 16 20 24 24 24 26 26 27 24 29 25 27 27 22 33 20 21 23 28 34 35
7 4 2 2 2 1 3 4 4 6 10 9 11 11 12 18 18 22 28 28 24 18 20 12 8 8 20 24 20 15 25 24 22 27 20 17 7 9 13 19 23 26 30 24 36
Wind_Direction
69 127 153 178 196 169 158 156 153 155 154 156 165 182 201 200 212 214 220 205 215 215 178 164 166 191 204 187 157 136 70 209 216 153 238 186 173 184 186 165 180 200 213 217 186
85 100 109 122 130 137 144 144 143 149 149 155 162 186 214 216 220 228 220 208 232 202 181 153 166 172 167 208 208 110 143 211 208 191 223 199 188 176 167 177 206 215 214 200 189
93 96 100 109 120 130 137 140 142 146 147 158 163 206 231 229 261 238 218 225 228 204 191 178 174 162 213 218 219 185 202 216 237 237 245 211 212 185 170 231 209 214 210 198 191
82 89 96 103 115 127 137 141 145 150 152 170 190 254 252 233 216 177 209 242 223 203 202 197 187 157 199 221 224 239 249 222 236 231 203 193 198 216 212 225 242 236 220 206 198
80 84 90 98 108 123 141 145 150 158 166 223 298 298 262 248 256 217 282 246 220 199 199 195 184 184 203 233 259 219 267 241 250 245 252 242 232 226 238 236 247 229 209 211 209
80 81 84 90 105 128 151 163 174 184 202 266 313 310 258 262 248 243 270 249 215 206 199 204 180 273 279 260 188 270 237 257 250 237 241 230 257 232 253 243 233 223 213 212 215
86 86 84 89 98 128 179 201 207 216 234 272 303 308 273 248 262 258 298 244 223 226 213 225 231 237 308 282 273 268 269 308 241 231 245 222 281 231 240 242 228 225 222 219 219
78 76 79 74 74 136 230 224 223 227 239 256 281 299 260 258 246 254 273 257 240 236 222 240 253 270 245 309 340 234 57 268 278 186 236 157 262 261 242 232 227 228 227 224 225
104 109 102 89 73 22 276 255 245 245 251 264 283 284 274 268 255 267 258 250 228 207 236 240 255 247 240 106 353 342 238 220 308 204 160 182 260 261 252 222 227 228 229 226 227
43 32 19 6 354 331 280 231 231 241 251 259 255 286 260 281 255 264 225 219 251 234 246 220 218 162 37 114 226 207 229 249 231 254 207 238 257 268 265 216 227 231 232 228 228
39 35 21 15 12 352 355 338 303 273 246 234 288 235 38 277 226 228 226 220 221 186 188 220 120 222 206 208 175 194 214 240 248 237 185 228 239 253 246 215 236 238 238 237 237
50 29 11 2 8 47 80 83 39 316 298 263 257 252 248 268 291 244 210 189 180 204 185 7 248 255 193 237 253 264 254 254 285 264 197 252 253 242 248 220 228 237 240 242 247
36 36 13 238 95 68 89 53 340 337 290 290 254 246 267 234 244 264 205 200 193 211 189 183 232 107 193 236 223 244 243 255 252 316 245 317 271 248 249 243 239 244 251 249 250
341 6 359 140 141 98 107 340 333 338 46 283 299 1 153 137 236 253 228 205 209 244 213 235 265 255 229 214 196 250 214 240 259 245 265 170 283 239 239 242 224 237 244 250 250
298 316 352 41 112 92 322 317 318 334 347 62 27 154 180 197 316 270 213 206 220 215 134 239 261 246 241 237 194 242 216 212 217 212 360 212 299 281 6 273 264 248 249 254 260
287 281 309 339 20 61 320 310 324 40 272 60 76 8 13 260 288 295 208 214 273 253 222 248 241 222 214 225 208 269 191 17 65 106 242 220 184 281 258 230 248 262 259 264 265
302 296 290 343 98 348 345 338 30 132 338 16 44 338 266 268 275 204 180 188 221 294 268 314 233 236 225 250 198 157 98 284 281 173 248 161 193 237 239 288 229 251 267 273 273
2 112 121 36 359 7 1 49 180 354 353 8 337 316 219 22 273 9 341 278 249 217 320 270 295 185 200 206 199 207 194 213 218 220 263 162 228 248 223 253 256 254 264 274 280
74 108 89 70 47 32 68 76 220 42 330 326 331 357 327 27 24 15 330 250 310 183 216 300 259 310 297 255 174 222 214 238 252 265 265 258 266 280 252 263 261 261 265 267 276
100 90 69 64 38 28 75 219 105 67 301 340 44 12 3 329 340 360 279 356 347 44 358 291 300 254 289 307 287 206 180 281 322 259 255 255 252 246 319 319 296 269 263 269 274
126 81 42 34 26 39 97 257 326 1 26 352 347 284 329 23 349 277 266 6 28 358 351 333 241 287 325 234 279 289 270 234 246 212 257 266 262 212 242 250 264 277 280 285 291
70 63 16 13 57 43 55 326 329 357 7 346 325 316 351 347 269 245 243 170 41 21 20 348 297 284 287 281 259 246 267 350 270 280 275 260 262 340 284 283 277 275 293 303 292
65 62 22 20 79 23 338 316 321 23 342 0 324 33 32 350 330 335 345 348 353 357 339 332 288 304 300 317 27 23 332 306 310 267 262 277 271 354 347 334 323 318 303 288 289
44 31 31 60 73 94 359 292 311 346 131 355 285 66 8 330 225 293 303 316 333 309 312 303 244 256 272 283 287 285 292 288 262 267 284 273 298 301 305 309 337 335 333 305 289
43 59 29 337 31 64 288 287 300 336 330 5 351 83 29 282 297 264 317 315 304 294 285 303 274 279 278 282 284 284 277 278 279 259 247 270 267 269 276 289 319 314 327 326 325
61 32 7 348 2 22 357 253 265 239 354 298 247 358 334 293 281 289 295 296 266 286 275 255 276 277 277 277 274 277 279 274 262 270 269 254 266 264 275 308 320 328 318 315 324
73 39 356 349 52 56 247 252 269 6 300 269 319 323 306 290 290 297 291 279 268 270 276 271 263 273 275 277 282 278 257 263 261 265 268 268 279 11 328 315 316 313 302 312 316